Location: Friaudour
(46.0460°N, 1.2873°E)
Time: 04:33:54
(UTC+00:00)

Cosmos 2061 Rocket - Pass Details

Date: 14 July 2020
Orbit: 965 x 1014 km, 82.9° (Epoch: 06 August)

Event Time Altitude Azimuth Distance (km) Brightness Sun altitude
Exits shadow 01:41:57 28° 183° (S) 1,790 4.9 -18.5°
Maximum altitude 01:45:35 85° 97° (E) 1,004 4.0 -18.3°
Drops below altitude 10° 01:51:55 10° 10° (N) 2,751 7.5 -17.8°
Sets 01:54:26 0° 10° (N) 3,696 8.4 -17.6°
